#timestamp,LO_Frequency,Hit,StdDev 
1508115615.7,286047006.9,N
1508115635.5,286047006.7,N
1508115655.3,286047005.4,N
1508115675.1,286047003.1,N
1508115695.9,286047003.4,N
1508115715.7,286047005.2,N
1508115735.5,286047009.2,N
1508115755.4,286047003.5,N
1508115775.2,286046999.4,N
1508115795.0,286046999.0,N
1508115795.9,286046999.0,N
1508115815.8,286046997.6,N
1508115835.6,286046997.0,N
1508115855.4,286046995.8,N
1508115875.3,286046994.3,N
1508115895.1,286046994.1,N
1508115896.0,286046994.1,N
1508115915.8,286046993.5,N
1508115935.7,286046991.7,N
1508115955.5,286046994.4,N
1508115975.3,286046995.9,N
1508115995.2,286046997.5,N
1508116015.9,286046996.6,N
1508116035.7,286046995.4,N
1508116055.5,286046997.4,N
1508116075.4,286046996.6,N
1508116095.2,286046998.7,N
1508116115.0,286046998.1,N
1508116115.9,286046998.1,N
1508116135.8,286046996.7,N
1508116155.6,286046997.8,N
1508116175.4,286046996.9,N
1508116195.3,286047001.2,N
1508116215.1,286046997.3,N
1508116235.8,286046998.7,N
1508116255.7,286046999.6,N
1508116275.5,286046997.7,N
1508116295.3,286046995.6,N
1508116315.2,286046997.8,N
1508116335.9,286046998.0,N
1508116355.7,286046996.4,N
1508116375.6,286046995.8,N
1508116395.4,286046996.2,N
1508116415.2,286046994.0,Y
1508116435.1,286046995.3,P
1508116436.0,286046995.3,P
1508116455.8,286046995.5,P
1508116475.6,286046999.6,N
1508116495.4,286047000.0,N
1508116515.3,286047003.8,N
1508116535.1,286046999.4,N
1508116555.8,286047006.0,N
1508116575.7,286047004.2,N
1508116595.5,286047003.4,N
1508116615.3,286047006.9,N
1508116635.2,286047009.9,N
1508116655.9,286047012.5,N
1508116675.7,286047014.4,N
1508116695.6,286047015.9,N
1508116715.4,286047018.7,N
1508116735.2,286047014.1,N
1508116755.1,286047017.2,N
1508116756.0,286047017.2,N
1508116775.8,286047014.2,N
1508116795.6,286047020.4,N
1508116815.4,286047017.7,N
1508116835.3,286047018.0,N
1508116855.1,286047018.2,N
1508116875.8,286047018.6,N
1508116895.7,286047019.0,N
1508116915.5,286047022.9,N
1508116935.3,286047023.4,N
1508116955.2,286047022.0,N
1508116975.9,286047016.5,N
1508116995.7,286047016.8,N
1508117015.6,286047018.8,N
1508117035.4,286047014.2,N
1508117055.2,286047014.7,N
1508117075.1,286047013.0,N
1508117076.0,286047013.0,N
1508117095.8,286047017.2,N
1508117115.6,286047015.8,Y
1508117135.5,286046998.5,P
1508117155.3,286046999.8,N
1508117175.1,286047000.5,N
1508117195.9,286047000.1,N
1508117215.7,286047001.1,N
1508117235.5,286046999.4,N
1508117255.3,286047000.6,N
1508117275.2,286047000.3,N
1508117295.0,286046998.3,N
1508117295.9,286046998.3,N
1508117315.7,286046998.0,N
1508117335.6,286046999.1,N
1508117355.4,286046995.1,N
1508117375.2,286046994.7,N
1508117395.1,286046995.5,N
1508117396.0,286046995.5,N
1508117415.8,286046995.8,N
1508117435.6,286046995.2,N
1508117455.5,286046994.0,N
1508117475.3,286046991.7,N
1508117495.1,286046993.5,N
1508117515.9,286046998.0,N
1508117535.7,286046993.7,N
1508117555.5,286046994.0,N
1508117575.4,286046991.9,N
1508117595.2,286046994.0,N
1508117615.0,286046992.1,N
1508117615.9,286046992.1,N
1508117635.7,286046999.0,N
1508117655.6,286046999.7,N
1508117675.4,286046998.3,N
1508117695.2,286046997.4,N
1508117715.1,286046995.4,N
1508117716.0,286046995.4,N
1508117735.8,286046993.7,N
1508117755.6,286046994.2,N
1508117775.5,286046997.9,N
1508117795.3,286046992.1,Y
1508117815.1,286046998.0,P
1508117835.9,286046999.5,N
1508117855.7,286046999.8,N
1508117875.5,286046996.8,N
1508117895.4,286046997.0,N
1508117915.2,286046997.0,N
1508117935.0,286046996.4,N
1508117935.9,286046996.4,N
1508117955.8,286046997.9,N
1508117975.6,286046996.1,Y
1508117995.4,286046997.1,P
1508118015.3,286046999.0,P
1508118035.1,286046999.2,N
1508118036.0,286046999.2,N
1508118055.8,286046997.0,Y
1508118075.7,286047001.2,P
1508118095.5,286046999.7,N
1508118115.3,286047001.1,N
1508118135.2,286047000.5,N
1508118155.9,286047002.6,N
1508118175.7,286047003.2,N
1508118195.6,286047004.4,N
1508118215.4,286047001.7,N
1508118235.2,286047001.5,N
1508118255.0,286047002.2,N
1508118255.9,286047002.2,N
1508118275.8,286047001.5,N
1508118295.6,286047000.0,N
1508118315.4,286046996.8,N
1508118335.3,286046998.7,N
1508118355.1,286046999.7,N
1508118375.8,286046998.4,N
1508118395.7,286046997.5,N
1508118415.5,286046997.9,N
1508118435.3,286046996.4,N
1508118455.2,286046995.7,N
1508118475.9,286047004.0,N
1508118495.7,286047002.2,N
1508118515.6,286047004.1,N
1508118535.4,286047006.7,N
1508118555.2,286047004.9,N
1508118575.0,286047006.6,N
1508118576.0,286047006.6,N
1508118595.8,286047006.5,N
1508118615.6,286047010.2,Y
1508118635.5,286047007.8,P
1508118655.3,286047008.0,N
1508118675.1,286047008.0,N
1508118695.8,286047007.7,N
1508118715.7,286047010.1,Y
1508118735.5,286047001.6,P
1508118755.3,286047002.1,N
1508118775.2,286047001.9,N
1508118795.0,286047003.3,N
1508118795.9,286047003.3,N
1508118815.7,286047003.0,N
1508118835.6,286047003.1,N
1508118855.4,286047004.0,N
1508118875.2,286047001.7,N
1508118895.1,286047001.7,N
1508118896.0,286047001.7,N
1508118915.8,286047003.5,N
1508118935.6,286047005.0,Y
1508118955.5,286047004.4,P
1508118975.3,286047002.8,P
1508118995.1,286046998.6,N
1508119015.9,286046996.9,N
1508119035.7,286046999.4,N
1508119055.5,286046997.5,N
1508119075.4,286046997.1,N
1508119095.2,286047002.6,N
1508119115.0,286046999.9,N
1508119115.9,286046999.9,N
1508119135.8,286046999.3,N
1508119155.6,286047001.8,N
1508119175.4,286047002.7,N
1508119195.2,286047002.4,N
